Hourly Weather Alexandria

Today, 22 June, Tuesday

Time Temperature Precipitation Wind Pressure Humidity
00:00 +21°C° 0 mm 2 mps 751 mmHg 80%
01:00 +20°C° 0 mm 2 mps 751 mmHg 81%
02:00 +20°C° 0 mm 2 mps 751 mmHg 81%
03:00 +21°C° 0 mm 1 mps 751 mmHg 82%
04:00 +20°C° 0 mm 1 mps 751 mmHg 83%
05:00 +18°C° 0 mm 0 mps 751 mmHg 84%
06:00 +20°C° 0 mm 0 mps 752 mmHg 80%
07:00 +21°C° 0 mm 0 mps 752 mmHg 75%
08:00 +23°C° 0 mm 0 mps 752 mmHg 71%
09:00 +24°C° 0 mm 0 mps 752 mmHg 67%
10:00 +25°C° 0 mm 0 mps 752 mmHg 62%
11:00 +27°C° 0 mm 0 mps 752 mmHg 57%
12:00 +27°C° 0 mm 0 mps 752 mmHg 56%
13:00 +30°C° 0 mm 1 mps 752 mmHg 54%
14:00 +31°C° 0 mm 1 mps 751 mmHg 52%
15:00 +31°C° 0 mm 1 mps 751 mmHg 52%
16:00 +29°C° 0 mm 0 mps 751 mmHg 52%
17:00 +29°C° 0 mm 0 mps 751 mmHg 51%
18:00 +28°C° 0 mm 0 mps 751 mmHg 56%
19:00 +28°C° 0 mm 1 mps 751 mmHg 61%
20:00 +27°C° 0 mm 1 mps 751 mmHg 66%
21:00 +26°C° 0 mm 1 mps 751 mmHg 68%
22:00 +25°C° 0 mm 1 mps 752 mmHg 70%
23:00 +25°C° 0 mm 1 mps 752 mmHg 72%

Tomorrow, 23 June, Wednesday

Time Temperature Precipitation Wind Pressure Humidity
00:00 +24°C° 0 mm 1 mps 752 mmHg 73%
01:00 +24°C° 0 mm 1 mps 752 mmHg 75%
02:00 +24°C° 0 mm 1 mps 752 mmHg 77%
03:00 +23°C° 0 mm 1 mps 752 mmHg 80%
04:00 +23°C° 0 mm 1 mps 752 mmHg 82%
05:00 +23°C° 0 mm 1 mps 752 mmHg 84%
06:00 +24°C° 0.1 mm 1 mps 753 mmHg 81%
07:00 +25°C° 0.1 mm 2 mps 753 mmHg 77%
08:00 +27°C° 0.1 mm 2 mps 753 mmHg 74%
09:00 +28°C° 0 mm 2 mps 753 mmHg 70%
10:00 +30°C° 0 mm 2 mps 753 mmHg 65%
11:00 +31°C° 0 mm 2 mps 753 mmHg 61%
12:00 +32°C° 0 mm 2 mps 753 mmHg 57%
13:00 +33°C° 0 mm 1 mps 753 mmHg 53%
14:00 +34°C° 0 mm 1 mps 753 mmHg 49%
15:00 +34°C° 0 mm 1 mps 753 mmHg 48%
16:00 +34°C° 0 mm 1 mps 753 mmHg 46%
17:00 +35°C° 0 mm 1 mps 753 mmHg 44%
18:00 +32°C° 0 mm 1 mps 753 mmHg 51%
19:00 +30°C° 0 mm 1 mps 753 mmHg 58%
20:00 +27°C° 0 mm 2 mps 753 mmHg 64%
21:00 +26°C° 0.2 mm 2 mps 753 mmHg 68%
22:00 +25°C° 0.2 mm 2 mps 754 mmHg 72%
23:00 +24°C° 0.2 mm 2 mps 754 mmHg 76%

Day after tomorrow, 24 June, Thursday

Time Temperature Precipitation Wind Pressure Humidity
00:00 +24°C° 0 mm 2 mps 754 mmHg 77%
01:00 +24°C° 0 mm 2 mps 754 mmHg 78%
02:00 +23°C° 0 mm 2 mps 754 mmHg 79%
03:00 +23°C° 0 mm 2 mps 754 mmHg 80%
04:00 +23°C° 0 mm 1 mps 754 mmHg 82%
05:00 +23°C° 0 mm 1 mps 754 mmHg 83%
06:00 +24°C° 0 mm 1 mps 754 mmHg 79%
07:00 +26°C° 0 mm 1 mps 754 mmHg 75%
08:00 +27°C° 0 mm 1 mps 754 mmHg 70%
09:00 +29°C° 0 mm 1 mps 755 mmHg 66%
10:00 +30°C° 0 mm 1 mps 755 mmHg 61%
11:00 +30°C° 0 mm 0 mps 755 mmHg 56%
12:00 +33°C° 0 mm 1 mps 755 mmHg 53%
13:00 +34°C° 0 mm 1 mps 755 mmHg 49%
14:00 +35°C° 0 mm 1 mps 754 mmHg 45%
15:00 +35°C° 0 mm 1 mps 754 mmHg 45%
16:00 +35°C° 0 mm 1 mps 754 mmHg 45%
17:00 +35°C° 0 mm 1 mps 754 mmHg 44%
18:00 +33°C° 0 mm 1 mps 754 mmHg 52%
19:00 +31°C° 0 mm 2 mps 754 mmHg 59%
20:00 +29°C° 0 mm 3 mps 754 mmHg 66%
21:00 +28°C° 0 mm 3 mps 754 mmHg 67%
22:00 +28°C° 0 mm 2 mps 754 mmHg 69%
23:00 +27°C° 0 mm 2 mps 754 mmHg 70%

25 June, Friday

Time Temperature Precipitation Wind Pressure Humidity
00:00 +27°C° 0 mm 2 mps 754 mmHg 71%
01:00 +26°C° 0 mm 1 mps 754 mmHg 73%
02:00 +26°C° 0 mm 1 mps 754 mmHg 74%
03:00 +26°C° 0.1 mm 1 mps 754 mmHg 76%
04:00 +25°C° 0.1 mm 1 mps 754 mmHg 78%
05:00 +25°C° 0.1 mm 1 mps 753 mmHg 79%
06:00 +26°C° 0 mm 1 mps 754 mmHg 75%
07:00 +28°C° 0 mm 1 mps 754 mmHg 71%
08:00 +29°C° 0 mm 1 mps 754 mmHg 67%
09:00 +31°C° 0 mm 1 mps 754 mmHg 62%
10:00 +32°C° 0 mm 1 mps 754 mmHg 57%
11:00 +33°C° 0 mm 1 mps 754 mmHg 53%
12:00 +34°C° 0 mm 1 mps 753 mmHg 50%
13:00 +35°C° 0 mm 1 mps 753 mmHg 47%
14:00 +34°C° 0 mm 0 mps 753 mmHg 44%
15:00 +36°C° 0.2 mm 2 mps 753 mmHg 46%
16:00 +35°C° 0.2 mm 3 mps 753 mmHg 49%
17:00 +34°C° 0.2 mm 5 mps 752 mmHg 51%
18:00 +32°C° 0.1 mm 4 mps 752 mmHg 57%
19:00 +28°C° 0.1 mm 3 mps 752 mmHg 64%
20:00 +26°C° 0.1 mm 2 mps 752 mmHg 70%
21:00 +25°C° 0.7 mm 3 mps 753 mmHg 74%
22:00 +23°C° 0.7 mm 5 mps 754 mmHg 77%
23:00 +22°C° 0.7 mm 7 mps 755 mmHg 81%

26 June, Saturday

Time Temperature Precipitation Wind Pressure Humidity
00:00 +22°C° 0.3 mm 5 mps 754 mmHg 84%
01:00 +21°C° 0.3 mm 3 mps 754 mmHg 87%
02:00 +22°C° 0.3 mm 1 mps 753 mmHg 89%
03:00 +22°C° 0 mm 1 mps 753 mmHg 91%
04:00 +20°C° 0 mm 2 mps 753 mmHg 92%
05:00 +20°C° 0 mm 2 mps 752 mmHg 93%
06:00 +21°C° 0 mm 3 mps 753 mmHg 87%
07:00 +24°C° 0 mm 3 mps 753 mmHg 81%
08:00 +25°C° 0 mm 4 mps 753 mmHg 75%
09:00 +27°C° 0 mm 3 mps 753 mmHg 69%
10:00 +28°C° 0 mm 3 mps 753 mmHg 63%
11:00 +30°C° 0 mm 3 mps 753 mmHg 57%
12:00 +31°C° 0 mm 2 mps 753 mmHg 53%
13:00 +32°C° 0 mm 2 mps 752 mmHg 50%
14:00 +32°C° 0 mm 2 mps 752 mmHg 47%
15:00 +33°C° 0 mm 1 mps 752 mmHg 47%
16:00 +33°C° 0 mm 1 mps 751 mmHg 46%
17:00 +33°C° 0 mm 1 mps 751 mmHg 46%
18:00 +31°C° 0 mm 1 mps 751 mmHg 51%
19:00 +30°C° 0 mm 1 mps 751 mmHg 57%
20:00 +28°C° 0 mm 1 mps 751 mmHg 63%
21:00 +27°C° 0.3 mm 2 mps 752 mmHg 69%
22:00 +25°C° 0.3 mm 2 mps 752 mmHg 76%
23:00 +24°C° 0.3 mm 3 mps 753 mmHg 82%

27 June, Sunday

Time Temperature Precipitation Wind Pressure Humidity
00:00 +23°C° 0.2 mm 2 mps 753 mmHg 84%
01:00 +23°C° 0.2 mm 2 mps 753 mmHg 86%
02:00 +21°C° 0.2 mm 2 mps 753 mmHg 87%
03:00 +21°C° 0.3 mm 2 mps 753 mmHg 88%
04:00 +21°C° 0.3 mm 1 mps 753 mmHg 89%
05:00 +21°C° 0.3 mm 1 mps 753 mmHg 90%
06:00 +22°C° 0 mm 1 mps 753 mmHg 85%
07:00 +23°C° 0 mm 1 mps 754 mmHg 80%
08:00 +25°C° 0 mm 1 mps 754 mmHg 74%
09:00 +26°C° 0 mm 1 mps 754 mmHg 70%
10:00 +27°C° 0 mm 2 mps 754 mmHg 66%
11:00 +29°C° 0 mm 2 mps 754 mmHg 61%
12:00 +30°C° 0 mm 1 mps 754 mmHg 59%
13:00 +31°C° 0 mm 1 mps 753 mmHg 56%
14:00 +32°C° 0 mm 1 mps 753 mmHg 54%
15:00 +32°C° 0 mm 1 mps 753 mmHg 53%
16:00 +32°C° 0 mm 1 mps 753 mmHg 52%
17:00 +32°C° 0 mm 1 mps 753 mmHg 51%
18:00 +31°C° 0 mm 1 mps 753 mmHg 57%
19:00 +29°C° 0 mm 1 mps 753 mmHg 63%
20:00 +28°C° 0 mm 2 mps 753 mmHg 69%
21:00 +26°C° 0.5 mm 2 mps 753 mmHg 75%
22:00 +25°C° 0.5 mm 2 mps 754 mmHg 81%
23:00 +24°C° 0.5 mm 3 mps 754 mmHg 86%
Show more

We Need Your Consent

Meteoprog and our Service Providers may store and access personal data such as cookies, device identifiers or other similar technologies on your device and process such data to personalise content and ads, as well as provide social media features and to analyse the traffic.

  • Store and/or access information on your device

    Cookies, device identifiers or other information can be stored or accessed on your device for the purposes indicated above.

  • Personalised ads and content, ad and content measurement, audience insights, and products development

    Ads and content can be personalised based on a profile. More data can be added to better personalise ads and content. Ad and content performance can be measured. Insights about the audience who saw the ads and content can be derived. Such data can be used to develop or improve user’s experience, systems and software.

By clicking ‘I Agree’ you will allow the use of indicated cookies, device identifiers, web beacons or other similar technologies. Your settings can be changed in the browser on your device.

For certain purposes, legitimate interests may be relied on, rather than consent. You can read more about this in our Privacy and Cookie Policy.